Regional Weather Roundup
Issued by NWS Goodland, KS

Home | Current Version | Previous Version | Graphics & Text | Print | Product List | Glossary On
Versions: 1 2 3 4 5 6 7 8 9 10 11 12 13 14 15 16 17 18 19 20 21 22 23 24 25 26 27 28 29 30 31 32 33 34 35 36 37 38 39 40 41 42 43 44 45 46 47 48 49 50
000
ASUS43 KGLD 030159
RWRGLD

GOODLAND FORECAST AREA HOURLY WEATHER ROUNDUP
NATIONAL WEATHER SERVICE GOODLAND KS
800 PM MDT WED SEP 02 2015

...OFFICIAL OBSERVATIONS...

CITY           SKY/WX    TMP DP  RH WIND       PRES   REMARKS
GOODLAND KS    PTCLDY    77  50  38 SW6       29.88R
HILL CITY KS   CLEAR     88  58  36 S7        29.81R
IMPERIAL NEB   PTCLDY    81  55  40 E8        29.86S
MCCOOK NEB     CLEAR     83  59  44 E7        29.82S
AKRON CO       PTCLDY    79  40  24 S5        29.97R
BURLINGTON CO  PTCLDY    74  51  44 CALM      29.94R
LIMON CO       MOCLDY    69  48  47 CALM      30.04R
$$

...UNOFFICIAL OBSERVATIONS...

CITY           SKY/WX    TMP DP  RH WIND       PRES   REMARKS
COLBY KS       PTCLDY    82  61  47 E8        29.86S
LENORA KS        N/A     83  32  16 MISG        N/A
NORTON KS      CLEAR     75  55  50 NE3       29.80S
SHARON SPRINGS   N/A     81  48  31 S8          N/A
TRENTON NEB      N/A     82  32  16 E6          N/A
KIT CARSON CO    N/A     81  47  30 MISG        N/A
YUMA CO          N/A     82  50  32 CALM        N/A
$$


USA.gov is the U.S. government's official web portal to all federal, state and local government web resources and services.